Theta_e
346 344 343 343 344 344 342 341 334 328 327 325 324 324 332 337 335 334 334 333 335 336 336 336 335 332 331 332 335 336 335 335 335 335 335 335 336 337 337 336 336 336 336 336 336 337 336 335 335 336 337 337 337 337 337 337 336 336 336 335 335 334 333 332 330 329 326 325 326 324 322 321 318 316 316 316 318 321 326 325 328 327 319 324 327
347 345 343 343 344 344 343 340 333 329 328 326 326 323 329 335 335 334 334 334 334 335 335 336 333 330 333 337 337 336 335 335 335 335 336 336 336 336 336 336 337 336 336 336 336 337 336 335 334 334 334 335 336 336 336 336 335 335 335 335 334 333 332 329 328 326 324 325 326 324 322 321 320 317 314 311 312 318 325 326 327 325 317 321 322
346 345 343 343 344 344 342 339 333 330 329 328 328 325 328 334 336 334 334 335 335 335 335 335 333 332 335 337 336 336 336 336 335 336 335 336 337 336 336 335 336 336 336 336 336 336 334 333 333 333 333 334 334 334 334 334 334 334 334 334 333 332 330 328 327 326 324 327 329 326 324 323 322 322 320 315 312 313 321 324 319 313 312 316 315
346 345 342 344 343 343 342 339 334 331 330 330 328 325 327 332 335 335 335 335 336 336 336 336 333 332 334 336 335 336 337 336 336 336 336 336 337 337 336 335 335 335 335 335 334 333 332 331 331 332 331 332 332 331 332 332 333 333 332 332 332 331 330 328 327 326 324 326 330 329 327 326 325 324 323 322 319 314 317 320 317 315 314 313 313
346 344 343 343 343 343 342 340 336 332 332 332 328 325 328 330 332 335 335 335 337 336 337 337 334 332 333 335 335 336 337 336 336 336 336 337 336 335 334 334 333 332 332 332 332 331 331 330 330 331 328 329 329 327 328 330 332 331 331 331 331 331 330 329 327 324 324 325 328 330 330 330 328 326 325 325 324 320 319 321 322 323 322 319 317
346 344 343 343 343 343 342 341 338 335 334 332 328 329 332 333 334 334 334 335 336 336 337 336 335 334 333 334 334 335 336 336 336 335 336 336 335 335 334 334 333 332 331 330 331 330 329 328 328 331 328 327 327 325 325 328 330 330 330 330 330 330 330 329 327 323 324 327 328 329 330 331 328 327 327 327 327 324 323 324 324 325 325 325 324
344 344 344 343 343 342 342 341 339 337 336 331 329 333 335 335 336 335 334 335 336 335 335 335 335 334 334 334 334 335 336 336 336 335 336 336 335 335 335 334 333 333 331 329 328 327 327 327 327 330 329 327 327 326 325 327 329 330 329 329 328 329 329 329 327 322 324 327 328 328 328 329 328 328 328 327 329 327 326 327 328 328 328 327 326
344 344 344 343 343 341 341 341 339 337 336 332 330 335 336 336 336 334 334 334 334 335 335 335 335 334 333 333 333 335 335 335 335 335 335 335 334 334 334 333 333 332 329 328 328 327 326 326 327 328 328 328 328 327 326 326 328 328 328 328 327 327 328 328 327 322 324 326 325 327 328 328 327 329 330 327 329 330 330 330 331 330 329 328 327
344 344 344 344 342 340 340 340 339 337 337 334 331 333 335 335 335 334 333 333 334 335 335 334 334 334 334 335 334 334 334 334 333 334 334 334 334 334 334 332 332 331 328 328 328 328 326 326 326 326 327 327 327 326 326 326 326 326 326 326 325 326 326 327 327 322 325 326 325 326 326 328 328 330 331 328 328 330 331 331 331 331 330 329 328
344 344 343 343 343 340 339 340 339 338 339 336 331 331 332 331 333 335 334 334 334 334 334 331 333 333 333 335 334 335 335 334 334 334 333 333 334 334 333 331 331 330 330 328 327 328 327 326 326 326 327 326 326 326 326 326 325 325 325 325 324 325 325 325 324 321 324 325 325 326 324 327 327 330 332 330 328 329 330 330 330 330 330 329 328
343 343 343 341 342 338 337 340 339 339 340 337 334 331 330 328 330 332 330 330 331 331 332 330 332 333 332 333 332 333 333 332 334 335 334 333 333 333 331 330 331 330 329 327 327 327 327 325 326 326 326 326 326 325 325 326 326 325 325 325 324 323 323 324 323 322 325 325 325 326 325 323 321 326 330 329 327 327 329 329 329 329 329 329 329
342 342 342 341 341 335 335 340 339 340 340 338 336 333 331 328 327 327 326 327 328 329 330 329 328 330 330 331 331 330 331 330 331 334 335 334 333 332 331 330 331 330 329 328 325 326 326 325 325 325 325 325 326 325 325 326 325 325 325 325 324 322 321 321 321 323 325 325 324 325 326 321 318 325 328 327 324 322 325 327 328 330 330 330 330
342 342 342 341 341 333 334 339 339 339 339 338 338 336 334 332 330 329 329 330 332 331 331 330 328 328 328 330 331 330 331 330 328 330 333 335 333 331 330 330 331 330 329 329 326 326 327 325 325 325 325 325 325 325 325 325 324 324 325 325 324 322 321 319 320 321 323 324 324 324 325 322 321 324 326 324 320 317 320 325 328 329 330 330 331
342 343 342 342 340 334 334 339 339 339 338 338 338 337 337 335 335 334 333 334 334 332 332 332 330 330 329 329 330 330 331 329 327 328 330 332 333 332 330 329 330 330 328 329 328 326 326 326 325 325 325 325 324 324 324 324 324 324 324 324 324 323 320 318 319 321 323 323 323 323 323 324 324 324 323 322 318 316 316 319 323 325 326 328 329
343 343 342 342 340 335 335 338 338 339 339 338 338 337 337 337 337 336 335 335 335 334 333 332 331 329 328 329 329 329 330 329 327 328 329 329 331 331 329 328 329 329 326 327 328 326 326 326 326 326 325 325 325 324 324 324 324 324 324 324 324 322 320 320 319 321 324 324 324 324 323 322 323 323 321 319 316 316 315 315 316 318 320 322 324
342 343 343 343 340 336 335 337 337 339 339 338 338 337 337 337 337 337 336 336 335 335 334 333 332 328 327 329 330 329 329 329 328 327 328 327 328 328 327 327 328 329 326 326 327 327 326 325 326 326 326 326 325 325 325 324 324 324 323 323 323 321 322 323 321 320 321 323 325 324 323 322 322 323 321 317 315 314 314 314 313 313 314 314 315
342 342 343 343 341 337 336 336 337 338 339 339 338 338 337 338 337 336 336 337 336 335 334 333 332 327 326 330 330 329 330 329 328 327 327 326 327 327 326 326 327 328 327 326 326 326 326 325 326 326 326 326 325 325 325 325 324 324 324 324 323 323 324 324 324 322 319 320 324 324 323 323 322 322 320 316 314 312 311 311 311 311 310 309 309
342 342 343 342 341 339 336 336 337 337 338 339 339 338 338 338 337 336 336 336 336 335 334 333 332 328 326 328 328 329 329 329 329 329 328 326 326 326 325 325 326 327 326 326 325 326 326 325 325 325 325 325 326 325 325 325 324 324 324 324 324 324 324 323 324 323 321 319 320 324 324 323 321 319 318 314 311 310 309 309 309 309 309 309 311
341 342 342 342 341 338 337 337 337 337 337 337 338 338 338 337 337 337 337 336 336 336 335 333 332 330 327 326 327 327 327 328 329 330 329 327 326 326 326 326 326 326 326 325 325 326 326 326 325 325 325 325 325 325 325 325 324 324 325 324 324 323 323 323 323 323 322 319 319 323 325 324 324 322 319 316 313 310 308 308 309 309 311 314 319
341 342 342 342 341 340 339 339 338 338 337 337 336 337 337 336 336 336 337 336 336 335 334 334 333 332 330 328 327 327 327 327 327 329 329 328 327 327 327 327 326 326 326 325 325 326 326 325 324 324 325 325 325 325 325 325 324 324 324 324 324 324 324 323 323 323 321 321 323 325 326 326 326 325 323 321 316 311 309 310 312 315 319 322 325
340 341 341 342 341 341 341 340 339 338 338 338 337 338 337 336 336 336 337 336 336 335 334 334 333 332 331 330 329 329 328 327 326 327 328 328 327 327 327 327 327 327 326 326 326 325 325 325 324 324 324 325 325 326 326 325 325 324 325 325 324 324 324 324 323 323 321 323 326 327 327 327 326 327 326 326 322 315 314 317 319 322 325 327 327
340 340 341 341 341 341 341 340 340 339 338 338 338 339 338 337 336 335 335 336 335 335 335 334 332 332 332 331 330 330 329 327 327 327 328 328 327 327 327 327 327 327 327 327 327 326 325 325 325 325 324 324 325 325 325 325 325 324 325 326 326 326 325 325 324 323 323 324 326 327 327 327 327 328 327 327 326 322 321 323 324 325 327 327 328
340 340 340 340 340 341 340 340 340 339 338 338 338 338 337 337 336 335 334 334 334 333 334 333 332 331 331 331 330 329 329 328 328 328 328 329 329 328 328 327 327 327 326 327 327 326 326 326 326 326 325 325 325 325 324 324 324 322 325 327 327 327 327 327 325 324 324 325 326 327 327 326 327 327 327 328 327 326 325 326 327 327 328 328 328
340 340 340 340 340 340 340 340 340 339 338 338 338 337 336 336 336 335 333 333 334 333 332 332 331 331 330 330 330 329 328 329 329 329 329 330 330 330 329 328 328 327 326 326 325 326 326 326 326 326 326 326 325 325 324 324 324 324 325 327 327 327 327 327 327 326 325 325 326 326 326 326 326 326 327 327 327 327 325 324 324 325 326 327 328
339 340 340 340 340 340 340 340 340 340 338 338 337 336 336 335 336 335 334 334 335 335 334 333 332 332 331 331 330 330 329 329 329 329 330 330 329 330 329 328 328 328 328 328 327 326 326 326 325 326 327 326 326 325 325 324 324 325 327 327 327 327 327 327 327 327 326 325 325 326 326 326 326 326 326 327 327 326 324 322 321 323 325 326 328
338 339 340 340 340 340 340 340 339 339 339 338 337 336 336 335 336 335 335 335 335 335 335 334 334 333 333 332 331 330 330 329 329 330 330 329 329 329 329 329 329 329 329 329 328 328 327 326 326 326 327 327 326 326 326 326 326 326 327 327 327 327 327 327 327 326 326 326 326 326 326 326 326 326 326 327 327 327 326 324 324 326 328 327 328
338 338 339 339 339 339 339 339 339 339 339 338 337 336 336 335 335 335 336 336 336 336 336 335 335 334 333 333 332 331 331 330 330 330 329 329 329 329 329 329 329 329 329 329 329 329 328 327 327 327 327 327 327 327 327 327 327 327 327 327 327 327 327 327 327 327 327 327 326 326 326 326 326 326 326 326 326 326 326 325 325 327 329 329 329
338 338 338 338 338 338 338 338 338 339 339 338 337 336 336 336 335 335 336 336 336 336 336 336 336 335 334 334 334 332 332 331 331 330 330 329 329 329 329 328 328 328 328 328 328 328 328 327 327 327 327 327 327 327 327 327 327 327 327 327 327 327 327 327 326 326 326 326 326 326 326 326 326 326 325 325 325 325 324 325 326 327 330 331 330
338 337 338 338 338 338 337 338 338 338 338 338 337 336 336 336 335 335 336 336 336 336 336 337 336 336 335 335 335 334 333 331 331 331 331 330 330 330 329 329 328 328 328 328 327 327 327 327 327 327 327 327 327 327 327 327 327 327 327 327 327 327 327 327 327 327 327 326 326 326 326 325 325 325 325 324 324 324 323 325 327 327 329 331 331
337 337 337 337 337 337 337 337 337 337 337 337 337 336 336 336 336 336 336 336 336 336 336 336 337 336 336 336 335 335 335 333 332 332 331 331 331 331 331 330 329 329 328 328 328 327 327 327 327 327 327 327 327 327 327 327 327 327 327 327 327 327 327 327 327 327 327 327 327 326 326 326 325 325 325 325 324 324 324 324 325 325 326 328 330
337 337 337 337 337 337 337 337 337 337 337 337 337 337 336 336 336 336 336 336 336 336 336 336 336 336 336 336 336 336 335 335 334 333 332 332 331 331 331 331 330 329 329 328 328 328 328 328 327 327 327 328 327 327 327 327 327 327 327 327 327 327 327 327 327 327 327 327 327 326 326 326 326 327 326 326 325 325 324 324 323 323 323 323 326
337 337 337 337 337 337 337 337 337 337 337 337 337 337 336 336 336 336 336 337 336 336 336 336 335 335 335 335 335 336 336 336 335 334 333 333 332 332 332 331 331 330 329 329 329 328 328 328 328 328 328 328 328 328 328 328 327 327 327 327 327 327 327 327 327 327 327 327 326 326 326 326 326 327 327 326 326 325 325 324 323 323 323 322 322
335 335 335 335 335 336 336 336 336 337 337 337 336 336 336 336 336 336 336 336 337 336 336 336 335 335 335 335 335 335 335 335 335 334 334 333 333 332 332 332 332 331 330 329 329 329 328 327 327 327 327 328 328 328 328 328 327 328 328 328 327 327 327 327 327 327 327 327 326 326 326 326 326 326 326 326 326 326 325 325 325 324 324 325 324
330 331 333 333 333 334 334 334 335 336 337 337 337 337 337 337 336 336 336 337 337 337 336 336 336 336 335 335 335 334 335 335 334 334 333 333 333 332 332 331 331 331 331 330 330 329 328 328 327 326 326 327 327 327 327 327 327 327 327 327 327 327 327 327 327 327 326 326 326 326 327 327 327 327 326 326 326 326 326 326 326 326 326 326 326
324 325 327 329 330 331 332 333 334 335 336 336 337 337 337 337 337 337 337 337 337 337 337 336 336 336 336 335 334 335 335 334 334 334 334 333 332 333 332 332 331 331 331 330 330 329 329 328 327 327 326 326 326 327 326 326 326 326 326 327 326 327 328 328 328 327 327 327 327 326 327 327 326 326 326 326 327 327 327 327 327 327 327 327 326
315 317 320 324 326 327 330 331 332 333 334 335 335 335 336 336 337 337 337 337 337 336 336 336 336 336 336 335 335 334 334 334 335 335 334 333 333 333 332 332 331 331 331 331 330 330 329 329 329 328 327 327 327 327 326 327 327 327 326 326 326 327 327 328 328 328 328 328 327 327 327 327 326 326 326 327 327 327 327 327 328 328 328 327 327
310 311 313 317 319 320 323 326 327 328 331 333 334 335 335 336 337 336 337 337 337 337 337 337 337 336 336 336 335 335 334 334 334 334 334 334 333 333 333 332 332 332 331 331 331 331 330 330 330 329 328 327 327 327 327 327 328 328 328 327 327 328 328 328 328 328 328 327 327 327 327 327 327 327 327 328 328 328 328 328 328 328 328 327 326
306 307 308 309 310 312 315 319 322 324 327 329 332 333 334 335 336 336 335 335 336 336 336 336 336 336 336 336 336 335 335 335 334 334 334 334 334 334 333 333 332 332 332 332 332 332 331 331 330 329 329 328 328 327 327 327 328 328 328 328 328 328 328 329 328 328 328 328 327 327 327 327 327 328 328 329 329 329 329 329 328 328 327 327 325
304 305 305 306 307 308 310 312 315 319 323 326 329 330 331 333 333 333 333 333 333 334 335 335 335 335 335 335 335 335 335 335 335 335 335 334 334 334 334 333 332 332 332 332 332 332 332 332 331 330 330 329 329 327 327 327 327 327 327 327 327 327 327 328 328 328 328 328 328 328 328 328 328 328 329 329 329 329 329 329 329 328 327 326 324
302 302 303 304 305 305 307 308 309 313 319 323 324 326 328 330 331 332 332 332 333 333 334 334 334 334 334 334 334 334 334 335 335 335 335 335 334 334 334 333 333 333 333 332 332 332 332 332 331 331 330 330 329 328 328 327 327 328 327 327 327 326 326 326 327 327 328 328 328 328 328 328 329 329 329 329 329 329 329 329 328 327 326 325 323
300 300 300 301 302 303 303 304 305 307 311 314 315 317 319 323 326 328 330 331 331 332 332 332 332 332 333 333 333 333 333 333 334 334 334 334 334 334 334 333 334 334 333 333 332 331 331 332 332 331 331 330 330 329 328 328 328 327 328 327 327 326 326 326 327 327 328 328 327 328 328 328 328 329 329 329 329 329 329 328 327 326 326 324 322
299 298 298 298 299 300 300 301 302 303 305 307 308 310 311 314 319 322 325 328 327 326 327 328 329 329 330 331 332 332 333 333 333 333 333 333 334 334 334 334 334 334 333 333 333 332 331 331 331 331 331 331 330 329 329 328 328 327 328 327 326 327 328 327 328 329 328 329 328 328 328 328 328 329 329 330 330 330 329 328 327 327 325 323 323
297 297 296 296 296 297 298 298 299 301 302 303 305 306 307 309 312 315 318 320 320 320 320 320 323 324 326 328 328 329 330 332 333 332 333 333 333 334 333 334 334 333 333 333 333 333 332 332 331 331 331 331 330 330 329 329 328 328 328 327 328 331 334 330 329 330 330 330 329 329 329 329 329 330 330 330 330 329 329 328 328 327 325 325 325
295 295 295 294 293 294 295 296 296 297 299 301 302 302 304 307 309 310 312 312 312 314 314 315 315 317 319 322 323 323 325 328 330 331 332 332 332 333 333 333 334 334 334 334 333 333 333 332 332 332 331 331 330 330 330 329 328 328 327 328 328 332 338 333 327 329 330 331 331 331 331 330 330 330 330 330 330 329 329 329 328 327 326 326 326
293 293 294 293 292 292 293 294 294 294 295 297 298 299 301 303 305 307 309 309 307 308 308 308 308 309 312 314 316 318 320 322 323 325 327 327 329 330 332 332 333 333 333 333 334 333 333 332 332 332 331 331 331 330 330 329 329 328 327 328 329 332 337 332 327 330 329 330 331 331 331 331 331 330 330 330 329 329 328 327 327 326 326 326 326
292 292 292 292 291 291 292 292 293 293 293 293 294 296 296 297 300 302 303 304 304 303 304 304 305 306 307 308 310 312 314 315 315 317 318 318 320 323 327 329 331 332 333 333 333 333 332 332 332 332 331 331 331 330 330 329 329 329 328 328 328 330 331 328 328 331 329 327 328 329 330 331 330 330 329 329 328 327 327 327 326 326 326 326 326
292 291 291 291 291 290 290 291 291 292 292 292 292 292 291 292 296 298 298 300 302 301 301 302 303 303 303 304 305 306 307 308 309 309 310 311 314 317 320 323 326 329 331 331 332 332 332 332 331 332 332 332 331 331 330 330 329 329 329 328 327 328 328 327 328 329 328 328 327 327 328 329 329 329 328 328 327 327 327 327 327 327 327 327 327
291 291 291 290 290 290 289 290 290 291 291 292 292 291 290 291 293 294 295 297 298 299 298 299 299 300 300 301 302 303 303 304 304 304 305 307 309 310 312 315 318 322 325 328 330 331 331 332 331 331 332 332 331 331 331 330 330 329 329 329 328 328 328 327 327 327 328 328 327 326 326 326 327 327 327 327 327 327 327 327 327 328 328 328 328
291 291 291 290 290 290 289 289 289 290 290 291 292 292 291 291 292 292 293 293 293 294 294 295 296 295 296 298 298 299 300 301 302 302 302 304 305 306 306 308 310 314 317 321 324 326 328 330 331 331 331 332 331 331 331 331 330 330 329 329 329 328 327 327 327 326 326 327 327 326 325 325 325 325 326 326 327 327 327 327 327 327 327 327 327
290 290 290 290 290 289 289 289 289 289 289 289 291 291 291 291 292 292 293 292 292 292 291 292 293 292 293 295 296 297 297 297 298 299 299 300 302 303 303 304 306 308 309 312 315 319 322 325 328 329 330 331 331 331 331 331 330 330 330 329 329 328 327 326 326 326 326 326 327 326 325 325 325 325 325 325 326 326 326 326 326 326 326 326 326
290 289 289 289 289 289 288 288 288 288 289 288 289 290 290 290 291 292 292 293 292 292 291 291 292 292 291 293 294 295 295 293 294 296 297 297 299 301 301 302 303 305 305 307 308 311 315 319 323 325 328 329 330 330 330 331 331 330 330 329 329 328 327 327 327 326 326 326 327 326 325 325 325 325 325 325 325 325 325 325 325 326 326 325 325
Wind_Speed
17 18 23 22 19 20 19 19 18 17 16 14 14 14 16 15 15 14 13 12 12 11 11 11 11 11 13 13 10 9 9 9 9 8 8 9 10 12 12 11 11 11 11 10 11 13 13 12 11 10 10 11 11 10 10 10 9 10 10 10 10 10 11 11 11 10 10 10 10 10 11 11 12 11 10 11 13 12 10 8 8 6 5 8 8
19 18 23 22 20 21 20 19 18 17 16 14 14 13 16 16 15 14 13 13 12 11 11 11 11 12 13 11 10 9 9 10 10 11 12 12 12 13 13 12 12 11 12 12 12 12 12 11 11 9 9 9 10 9 9 9 9 10 9 9 9 10 10 9 9 10 10 8 8 8 9 10 10 11 11 10 10 10 8 8 7 5 5 7 7
21 19 23 22 21 21 20 20 18 17 16 15 14 14 16 17 16 14 14 13 12 11 11 12 12 13 13 11 10 9 8 10 12 13 14 13 12 12 12 13 12 11 12 11 11 11 11 10 8 8 8 7 7 8 8 7 8 8 8 8 8 9 9 8 9 9 8 6 6 7 8 9 9 9 11 10 9 8 7 7 7 5 5 6 5
20 19 23 22 21 22 21 20 19 17 16 15 14 15 17 17 16 15 14 13 12 11 11 11 13 14 12 10 10 10 8 9 11 12 13 13 12 11 11 11 10 10 10 10 10 10 10 8 6 6 6 6 6 5 5 5 6 5 5 5 6 7 7 7 7 7 6 4 4 5 7 8 7 6 8 9 9 9 8 7 8 8 8 6 7
20 20 22 22 22 22 21 19 19 18 17 16 15 16 17 16 16 15 15 13 12 11 10 9 11 12 10 9 9 9 9 9 11 12 12 12 11 10 9 9 8 8 8 7 8 9 9 8 6 4 2 2 2 1 2 4 5 3 2 3 4 5 5 6 6 6 6 4 3 3 4 4 5 5 5 6 7 8 8 8 9 9 8 8 7
21 18 20 22 21 22 22 20 19 18 17 16 16 17 17 16 16 15 14 13 11 10 9 7 8 9 8 8 8 8 8 9 10 11 12 11 10 9 8 8 7 6 5 4 5 5 5 6 6 5 1 2 2 2 1 4 4 2 2 2 3 3 3 4 4 5 6 5 2 1 4 1 4 3 3 3 5 6 6 6 6 6 7 7 5
20 16 18 20 19 22 21 20 19 17 17 17 17 17 17 17 16 14 14 13 11 10 9 7 7 7 8 8 7 7 8 8 9 10 11 9 8 8 7 6 6 6 3 2 1 2 3 5 6 6 3 1 2 3 2 4 4 2 2 3 2 2 2 3 2 3 4 3 3 2 4 2 3 2 0 1 2 4 4 4 3 2 3 4 3
19 16 18 18 18 21 21 21 19 17 17 16 18 18 18 17 16 15 14 13 11 10 9 8 6 6 7 7 6 6 6 7 7 8 9 8 7 6 6 5 5 3 0 2 2 2 2 4 6 7 4 2 1 2 1 2 3 2 3 3 2 3 3 4 2 2 3 3 3 2 3 3 2 4 3 1 1 1 2 2 2 2 1 1 1
19 17 19 17 17 20 21 20 18 18 17 16 18 18 18 18 17 15 14 13 12 11 10 10 9 7 6 6 5 5 5 5 5 5 6 6 6 5 5 5 4 2 1 2 2 1 1 1 5 8 6 3 1 1 1 1 2 2 3 4 4 3 4 4 4 3 2 3 2 2 4 4 2 4 5 2 2 2 1 2 3 4 3 4 3
17 17 19 17 16 18 20 20 18 18 16 16 18 17 18 17 17 16 15 14 14 13 12 12 11 9 8 7 6 5 5 3 3 4 5 5 6 6 5 4 4 3 2 2 1 0 1 1 2 6 5 3 2 2 2 2 2 2 3 5 5 4 4 5 5 5 2 4 2 3 4 5 3 2 4 3 2 3 2 1 1 2 3 4 5
16 17 17 17 16 17 20 21 19 19 16 16 17 17 17 17 17 16 15 15 14 13 12 11 11 11 9 8 7 6 4 3 3 5 6 5 6 6 4 3 4 3 2 2 1 1 2 1 2 3 3 3 3 2 2 2 2 3 3 4 5 5 6 6 6 4 2 3 3 3 4 6 5 2 4 3 4 4 4 2 0 2 3 4 4
15 17 16 16 14 16 21 21 19 18 16 15 16 16 16 16 16 15 14 14 12 10 9 8 9 10 9 8 7 6 5 6 4 5 5 6 6 4 3 3 4 3 2 3 2 2 2 2 2 2 2 3 2 1 3 3 3 3 3 5 7 6 6 7 8 6 2 3 5 5 5 6 6 5 6 6 7 7 5 3 2 3 4 4 4
13 14 14 15 13 15 21 20 18 18 16 15 15 15 15 15 15 14 14 13 11 10 9 8 7 7 7 7 7 6 7 9 7 6 4 5 6 3 2 3 5 3 2 3 2 2 2 2 2 2 2 3 2 2 3 4 4 4 5 5 8 8 6 6 7 8 4 5 7 7 7 6 8 9 10 9 9 8 7 6 5 5 5 6 5
12 11 12 14 13 14 20 20 17 16 16 16 15 15 15 15 15 14 13 12 11 11 11 10 8 6 6 6 7 7 7 8 8 9 7 5 7 5 4 3 5 3 2 3 2 2 3 3 2 2 3 3 4 5 5 5 5 5 6 5 8 9 6 4 4 6 6 6 9 9 9 9 9 10 12 11 10 9 8 8 9 9 8 8 7
12 11 11 12 13 14 18 19 18 16 15 15 15 15 15 15 14 13 13 12 11 11 10 9 8 6 8 8 7 8 6 6 5 8 9 8 8 6 6 6 6 5 3 4 4 3 4 4 4 3 4 4 6 6 5 6 6 6 7 7 8 9 7 6 4 5 8 8 10 11 11 11 11 12 13 13 12 11 10 10 11 11 12 12 12
13 12 10 10 12 15 18 18 18 16 14 14 14 14 14 15 14 13 13 13 12 11 9 9 7 4 8 11 8 9 7 8 7 7 8 9 10 8 7 7 7 6 5 5 5 5 5 5 6 5 5 5 5 6 6 7 8 8 8 9 10 11 10 9 8 8 9 9 10 12 11 12 12 13 15 15 14 14 13 13 12 13 13 14 14
12 12 10 10 11 15 17 17 17 16 14 12 12 13 13 14 14 14 13 13 12 11 9 9 7 3 8 13 9 10 9 9 10 9 8 8 10 10 10 10 9 8 7 7 7 7 7 6 6 6 7 7 7 7 8 8 9 10 11 11 12 13 13 13 13 12 10 9 10 12 13 14 13 14 17 17 16 15 15 14 14 13 13 13 14
12 11 10 11 11 13 15 15 16 15 13 12 11 11 12 12 13 13 13 12 12 11 10 8 7 3 8 14 12 11 11 10 10 10 9 8 8 10 11 12 12 11 9 7 8 8 9 8 8 8 9 9 9 9 10 10 10 12 13 13 14 15 15 15 16 16 15 13 12 14 16 17 15 16 18 18 17 16 16 15 15 14 14 13 13
11 10 9 12 12 12 13 13 15 15 13 13 12 11 11 11 11 13 13 13 12 11 10 9 8 5 6 12 12 11 12 12 11 11 11 10 9 9 11 11 12 12 10 9 9 9 10 10 10 11 11 11 11 12 12 13 13 14 15 15 16 17 18 19 19 20 18 15 13 14 17 17 15 16 18 18 18 17 16 16 16 15 15 14 13
9 9 9 11 12 12 13 12 13 14 12 11 11 12 12 12 12 13 13 13 13 12 10 10 9 8 8 9 10 10 11 12 14 14 12 12 11 11 11 11 12 12 12 11 11 12 12 13 13 13 12 12 13 14 14 13 14 15 16 17 18 19 20 21 22 22 19 15 12 13 16 15 16 18 19 19 18 16 16 16 16 15 15 15 15
8 8 9 10 11 12 13 12 11 11 11 10 10 11 11 11 12 12 13 13 13 12 11 11 11 11 10 10 11 11 11 12 14 15 14 14 13 13 13 14 14 13 13 12 12 14 15 15 15 15 14 14 14 15 15 15 16 16 17 17 17 18 20 21 22 22 19 15 14 15 16 17 19 19 18 18 16 16 15 15 15 16 16 16 17
8 7 9 9 10 10 11 11 10 11 12 10 10 11 9 9 9 11 12 13 13 13 13 12 13 13 13 13 13 13 13 11 11 12 13 14 13 13 13 14 15 15 15 14 14 15 16 17 17 17 17 16 16 16 18 18 19 18 17 16 17 18 18 18 20 20 18 16 16 17 18 19 20 20 19 18 17 17 16 16 17 17 18 18 19
10 8 9 10 10 10 10 11 11 11 12 11 11 9 8 8 8 8 10 11 12 13 13 13 13 12 12 12 12 12 11 9 9 11 12 12 12 12 12 13 14 16 17 17 17 17 17 17 18 18 18 19 19 20 21 22 22 19 16 16 18 18 18 18 17 17 17 17 18 20 20 21 22 22 22 21 20 19 19 18 19 19 20 20 21
11 10 9 10 10 10 10 11 10 11 11 11 12 9 7 7 8 8 9 10 10 9 9 10 10 10 10 10 10 9 9 9 10 11 12 12 13 13 13 14 15 16 17 18 19 19 19 19 19 17 17 18 19 20 22 22 21 18 16 17 18 18 18 17 16 17 18 18 20 21 21 22 23 24 24 23 22 22 22 22 22 22 22 22 22
9 10 9 9 10 10 10 11 10 11 11 11 12 11 8 8 8 9 9 11 11 9 8 7 9 11 11 10 10 10 9 10 11 12 12 12 14 15 15 15 15 15 14 16 17 17 17 18 16 15 15 14 15 16 17 17 16 16 17 18 19 19 18 18 18 20 21 21 21 21 22 23 24 25 26 26 26 25 25 25 24 23 22 22 22
7 8 9 9 9 9 9 9 10 11 11 12 11 11 11 11 10 10 10 11 12 12 11 9 9 11 12 12 11 11 12 11 12 12 12 12 13 14 14 15 14 13 13 13 13 12 13 13 13 14 14 13 14 14 14 14 14 14 16 18 19 19 20 20 21 22 23 23 23 22 22 23 24 26 27 27 27 25 25 24 23 22 21 22 22
8 6 6 7 8 9 9 9 10 11 12 12 12 12 12 13 12 10 10 11 12 12 12 12 11 12 13 14 13 12 13 13 13 14 14 13 13 13 14 14 14 13 13 13 12 11 11 11 12 14 14 14 14 14 15 15 15 16 17 19 20 21 22 22 23 24 24 24 24 24 24 24 26 27 28 29 29 27 26 25 24 23 23 23 23
10 7 5 5 7 8 9 9 9 10 12 12 13 14 13 14 14 12 11 12 12 11 12 12 13 13 14 14 15 14 13 13 14 14 15 14 14 14 14 15 15 14 13 14 14 13 13 13 14 15 15 16 16 16 17 18 18 20 21 22 22 23 24 25 25 26 26 26 26 26 27 27 28 29 29 29 29 29 28 26 25 24 24 25 25
7 8 7 5 6 8 8 9 9 10 11 12 13 14 13 13 14 14 14 14 14 13 13 13 13 14 14 14 15 15 15 15 15 15 15 15 15 15 15 15 16 15 15 15 15 15 15 15 16 16 16 16 17 17 17 18 19 20 21 22 23 24 24 25 26 27 27 27 28 28 29 29 29 29 29 29 29 28 29 27 26 25 25 25 26
3 5 6 5 6 7 8 9 9 10 10 11 12 13 13 13 13 14 15 15 15 15 15 15 14 14 14 15 16 17 17 17 17 16 17 17 16 16 17 17 17 16 16 16 16 16 17 17 17 16 17 17 17 18 18 18 19 19 20 21 22 23 24 25 26 27 27 27 28 29 29 29 29 29 29 29 29 28 28 28 27 26 26 26 26
3 2 1 4 5 5 6 7 9 10 10 11 11 12 12 11 11 12 14 14 14 14 14 14 15 15 15 15 17 18 19 19 19 18 19 19 18 18 18 18 19 18 18 18 17 17 18 18 18 17 17 17 18 18 18 19 20 19 20 21 22 24 25 27 27 27 27 27 28 29 29 29 28 29 29 29 29 28 28 27 27 27 26 26 26
3 3 4 2 1 2 4 6 8 10 11 11 11 12 12 11 11 11 11 12 12 12 13 13 13 14 15 15 17 18 18 19 19 19 20 20 20 19 19 19 20 19 19 19 19 19 19 19 18 18 19 19 20 20 19 18 20 20 20 21 22 23 26 27 27 28 28 28 28 29 29 29 29 30 30 30 30 29 28 27 27 26 26 26 26
10 8 7 6 5 3 3 4 5 8 10 11 11 12 12 11 11 11 11 11 12 12 13 14 14 14 15 15 16 17 18 17 18 18 19 21 21 21 21 20 20 20 19 19 19 20 21 21 21 20 21 21 22 23 22 21 22 23 23 24 24 25 26 26 27 28 28 29 29 29 30 30 30 30 30 30 30 29 28 27 26 25 25 25 26
16 15 12 10 8 7 6 5 4 4 6 8 9 11 11 11 11 12 12 11 11 12 13 14 14 14 15 15 15 15 17 18 18 18 18 19 20 21 22 22 21 20 20 19 19 20 22 23 22 21 21 21 22 22 21 23 24 24 25 25 26 27 26 26 28 29 29 30 29 30 30 30 31 31 30 30 29 29 28 27 26 25 25 25 25
22 20 19 16 14 13 10 8 6 4 4 6 8 9 10 10 10 11 11 11 11 12 12 13 14 14 15 16 15 15 15 16 18 19 19 19 20 21 22 23 21 20 21 21 20 21 23 23 22 21 21 21 21 21 21 22 23 23 24 24 25 26 26 26 27 27 29 29 30 30 30 31 31 31 30 29 29 28 28 27 26 25 25 25 25
27 26 24 21 21 20 16 13 11 8 5 5 6 8 9 10 11 10 10 10 11 11 12 12 12 13 15 15 15 15 15 16 17 18 20 21 21 21 21 21 20 20 21 22 22 23 23 22 22 22 22 21 21 21 22 22 24 25 25 25 25 24 25 26 26 26 27 28 30 31 31 31 30 29 29 28 28 28 28 28 27 27 26 26 26
29 28 27 26 25 24 21 19 17 14 11 8 5 5 6 8 9 10 11 10 10 11 12 13 13 14 14 14 15 16 17 16 17 18 19 21 22 22 21 19 19 19 19 21 22 23 23 22 23 23 22 22 22 22 22 22 23 24 24 25 25 25 26 27 28 28 29 30 31 32 32 31 30 29 28 28 28 28 28 28 29 29 28 27 25
30 30 29 28 27 26 25 23 20 18 15 11 9 7 5 5 6 7 9 9 10 10 11 12 12 13 14 15 15 15 15 16 17 18 19 20 21 21 21 20 20 20 19 19 20 22 23 24 24 24 24 24 24 24 24 24 24 24 25 25 26 26 28 29 29 30 30 31 32 32 32 31 31 30 29 28 28 28 28 29 29 29 28 25 22
33 33 32 31 30 29 28 27 26 23 19 15 12 11 9 6 6 6 6 8 9 9 9 10 11 12 13 14 15 15 15 15 17 17 18 20 20 21 21 21 21 22 22 22 22 22 23 24 25 25 25 26 27 26 26 25 25 25 26 27 27 28 30 31 31 31 32 33 33 32 32 31 31 30 29 28 28 28 29 28 27 26 25 23 20
37 37 37 36 33 32 31 31 30 28 24 21 19 19 16 12 10 9 8 7 8 8 9 10 10 11 12 13 14 15 16 16 17 17 18 19 20 20 21 22 22 22 23 24 24 24 23 24 25 26 26 27 27 27 26 26 26 27 28 30 30 30 32 33 33 34 35 35 35 34 33 32 31 30 30 29 28 28 28 27 26 24 23 21 18
40 39 40 41 38 35 35 33 32 31 30 28 26 26 24 20 16 17 15 13 13 12 11 12 12 12 13 12 13 14 15 16 17 17 18 18 19 19 20 21 22 22 23 24 25 26 26 25 25 26 27 27 27 26 25 25 24 23 23 25 29 31 32 32 32 32 33 34 34 33 32 31 31 30 29 27 27 26 25 24 23 23 23 21 18
36 36 37 41 42 40 39 37 35 34 34 31 29 28 28 25 21 20 16 14 16 18 18 18 17 16 16 16 16 16 15 15 15 16 17 18 19 19 19 20 22 22 23 24 25 25 26 25 25 25 24 25 26 26 24 21 19 17 14 13 19 24 24 25 28 29 29 30 29 30 30 29 28 28 26 26 24 24 23 22 22 22 22 21 20
32 34 35 40 46 44 41 42 42 40 37 34 30 29 27 26 26 26 22 19 20 20 21 21 20 19 17 17 19 20 19 17 15 15 15 17 18 19 20 21 21 22 22 24 24 24 25 25 25 25 24 24 25 26 24 21 19 16 10 7 7 9 9 13 20 24 26 26 26 27 27 26 26 25 24 24 23 23 23 22 22 23 22 21 21
34 35 34 38 43 43 41 43 46 46 42 38 33 31 30 28 27 26 25 25 25 24 25 26 27 25 22 20 21 23 23 22 20 18 17 18 19 19 19 20 21 22 22 23 24 24 24 24 25 26 26 25 23 23 22 22 23 17 7 4 4 4 4 4 7 13 17 20 23 24 24 24 24 23 23 23 23 23 23 22 22 22 22 22 23
34 33 32 33 37 40 40 41 44 46 46 43 38 36 37 36 33 31 29 28 31 33 33 33 34 31 29 26 24 24 24 25 26 24 22 22 21 21 20 21 21 22 22 23 24 25 25 24 24 25 26 26 24 22 20 21 24 24 16 8 4 3 3 5 8 8 9 12 18 21 23 23 22 22 22 23 23 22 22 22 22 22 23 24 25
31 31 32 33 35 39 39 38 40 42 43 44 43 41 43 43 38 34 32 28 28 31 31 31 31 31 30 29 28 26 26 26 28 28 28 28 25 24 22 21 21 21 21 23 25 25 25 25 24 25 25 25 25 23 21 19 20 25 27 23 16 11 7 8 7 5 8 12 14 15 16 18 18 19 20 21 21 21 20 20 22 24 25 26 27
28 31 33 34 37 39 39 38 38 39 40 41 43 45 47 47 39 32 29 25 22 25 27 27 28 28 29 31 30 29 29 28 29 31 31 32 30 28 27 25 23 21 21 22 23 24 25 25 24 24 25 26 25 23 22 21 18 19 25 29 28 25 20 13 6 4 7 10 13 14 13 13 14 16 18 20 20 20 21 22 25 26 26 26 26
26 30 32 33 35 37 38 38 38 38 38 38 40 43 46 44 39 34 31 28 24 23 26 29 31 32 33 34 33 32 32 31 31 33 34 34 33 32 31 30 29 27 25 25 24 24 25 25 25 25 25 26 26 25 24 23 20 18 20 23 26 27 26 22 18 12 6 5 11 16 19 19 19 19 19 20 21 22 23 24 24 24 24 24 23
26 28 29 30 32 33 36 38 38 37 38 37 36 38 40 39 37 35 32 31 29 27 28 30 32 35 36 36 37 36 36 35 33 34 35 35 34 34 34 33 33 31 29 28 28 27 27 26 26 27 26 25 25 25 25 24 23 22 19 19 21 22 22 21 22 19 12 7 7 9 15 18 18 20 21 21 22 22 22 22 23 23 23 24 25
27 28 28 30 31 32 34 37 37 36 37 38 36 35 37 36 34 31 29 30 31 30 33 34 33 35 36 36 36 36 36 38 36 35 37 36 34 34 34 34 33 32 31 31 30 30 30 30 29 28 27 27 26 26 26 25 25 24 22 19 18 17 14 12 14 16 13 10 9 7 10 13 13 18 22 22 23 24 23 24 25 26 26 27 28
26 28 29 30 31 32 33 35 36 36 36 37 37 35 36 35 33 30 27 27 29 30 33 35 34 35 37 35 34 33 34 38 38 36 37 38 36 35 36 35 33 33 34 33 33 32 31 31 31 30 29 28 27 27 27 27 26 26 25 24 21 19 16 12 13 15 12 8 8 7 9 14 15 18 22 23 25 25 25 25 26 26 27 29 29
Wind_Direction
154 161 160 162 157 154 155 155 156 154 151 150 152 152 150 146 146 143 142 143 144 146 145 143 141 141 135 127 125 137 141 136 134 125 117 111 107 109 121 133 132 130 128 119 107 99 95 96 94 86 81 80 79 81 85 87 90 87 85 88 92 96 101 98 94 87 73 70 76 80 80 81 82 88 104 120 122 113 107 95 96 106 109 112 106
153 158 160 162 156 153 155 157 158 155 152 152 151 149 149 147 147 145 143 142 144 146 143 142 141 142 137 133 139 145 141 132 128 119 111 108 105 99 104 107 102 105 107 106 102 99 95 92 92 88 84 84 81 78 80 81 84 84 83 86 93 101 101 98 91 77 67 76 81 84 83 79 82 84 91 106 120 122 109 83 95 114 103 128 123
148 155 161 161 156 155 156 159 159 157 154 152 150 145 146 147 148 146 144 143 144 140 138 143 143 145 143 146 149 142 136 132 128 119 108 102 100 93 94 91 86 90 92 96 97 98 93 89 92 95 92 89 88 82 80 79 85 85 84 88 98 110 105 95 86 73 74 93 96 95 94 83 82 88 92 96 107 120 118 94 88 91 99 128 120
143 152 161 160 156 156 156 160 160 158 155 152 148 142 143 147 149 148 146 144 143 140 144 150 150 149 145 147 146 138 136 134 131 124 110 103 107 104 102 98 96 100 98 99 101 106 101 96 91 95 100 97 96 89 89 86 90 91 89 92 100 113 105 95 85 78 78 93 118 114 102 80 77 91 96 100 103 114 122 112 91 84 87 94 107
139 150 161 159 157 158 157 160 161 158 156 153 148 142 141 143 146 147 147 145 145 148 149 152 151 150 147 148 146 142 143 140 136 128 119 120 126 122 115 109 109 112 115 123 127 126 120 122 111 100 106 85 76 28 130 102 89 102 125 109 103 116 107 100 84 88 93 96 159 166 140 71 57 84 84 96 103 118 125 116 102 88 78 78 97
142 152 160 159 160 163 160 161 161 157 157 157 149 143 142 142 144 146 149 147 149 152 150 147 148 149 148 153 154 150 147 145 143 137 133 135 137 124 114 111 109 113 123 146 161 156 148 149 134 123 105 352 354 341 157 127 105 111 179 170 120 130 119 119 92 98 105 98 116 147 175 126 26 65 77 88 96 122 130 110 95 74 69 77 89
143 150 155 159 165 166 163 162 161 157 160 159 151 146 147 147 147 149 150 150 150 149 142 136 146 147 140 149 157 159 155 151 150 150 144 138 138 128 121 118 112 115 123 124 186 230 210 189 165 141 125 24 46 44 76 132 134 126 198 210 166 164 158 148 125 110 101 70 73 70 162 151 351 310 327 42 89 124 130 105 85 49 58 77 90
142 146 152 161 168 168 163 163 163 161 163 162 155 152 152 152 152 152 151 150 147 144 137 134 147 141 131 138 147 150 146 147 151 152 147 141 144 138 133 128 126 133 76 28 20 317 258 217 195 173 153 144 122 89 75 116 140 162 212 236 216 190 193 184 186 129 88 45 34 31 147 139 300 254 227 283 276 160 147 169 171 198 227 291 71
137 145 152 161 170 168 164 164 164 162 165 164 160 158 157 157 155 152 151 151 148 151 152 154 160 142 132 135 137 141 136 143 148 151 149 146 146 141 143 144 150 153 45 58 60 38 49 231 199 185 167 155 189 173 166 169 177 189 221 246 238 218 206 201 209 173 85 26 356 277 174 159 203 220 209 212 254 243 259 204 203 208 213 253 283
135 148 154 164 174 172 167 166 165 165 168 169 166 163 163 163 159 157 160 160 160 166 169 171 170 158 153 148 151 158 156 167 159 166 165 152 150 148 155 163 159 140 123 117 103 74 117 62 166 171 163 158 170 144 158 212 238 242 244 260 250 242 226 212 206 191 330 341 310 262 222 201 187 182 202 193 231 233 245 206 196 227 219 248 275
141 150 157 170 176 175 171 170 170 169 169 173 171 169 169 168 165 166 168 168 170 177 182 184 180 177 173 163 169 172 172 187 177 180 180 166 161 162 162 165 168 157 162 161 170 169 131 114 120 144 147 156 168 159 186 212 247 254 253 278 267 255 242 221 202 193 319 295 227 249 248 218 201 237 234 233 256 238 234 233 204 236 235 246 256
144 149 161 171 171 176 175 174 175 172 171 174 172 173 174 173 171 172 173 172 175 177 184 190 184 191 195 188 186 189 201 197 186 187 190 185 169 169 173 168 178 169 166 164 173 200 160 133 151 163 150 164 188 225 224 216 232 255 259 285 283 270 250 231 213 209 224 230 239 247 237 214 205 237 247 253 261 246 234 236 263 262 271 272 250
140 145 160 166 163 174 176 176 178 176 175 175 174 177 176 175 175 176 177 176 173 166 172 188 185 192 200 202 196 200 220 215 213 206 199 200 190 192 205 206 191 173 181 187 189 216 200 165 181 200 182 187 201 234 242 239 241 252 256 274 288 281 269 255 229 225 228 223 241 242 235 232 227 241 248 257 258 245 235 225 240 249 265 283 275
133 135 153 162 160 170 177 176 177 177 177 178 179 180 178 177 179 180 181 181 177 172 180 192 195 198 190 198 200 194 214 227 226 206 203 212 207 216 221 232 210 201 252 231 226 232 227 207 216 231 216 222 231 245 252 253 253 253 256 262 273 278 292 298 244 238 262 256 251 244 237 236 235 244 248 250 249 246 246 235 238 240 240 251 260
131 131 147 159 161 171 179 178 178 178 179 182 183 184 183 183 185 184 182 185 184 184 193 197 204 222 195 190 201 198 207 222 221 201 209 216 211 223 225 233 232 238 261 245 245 242 243 232 242 254 231 239 247 253 259 256 258 259 263 264 264 278 304 314 281 245 248 257 262 257 249 243 240 248 250 246 247 250 252 246 243 243 243 245 247
134 132 144 156 163 174 180 180 179 181 183 185 188 188 189 190 192 190 187 189 191 196 208 208 217 249 196 185 195 205 209 212 217 219 226 228 223 229 227 227 232 237 245 253 259 248 251 247 249 254 243 258 259 254 263 265 266 268 269 268 273 289 303 303 297 271 243 245 258 263 262 254 246 250 255 252 253 256 256 253 249 246 246 246 246
142 139 146 150 160 174 179 182 181 184 188 190 194 193 195 195 197 198 194 196 202 209 217 219 229 258 193 187 190 201 206 205 212 224 238 242 232 230 230 232 235 239 247 256 258 249 249 252 255 256 253 264 265 260 263 266 268 275 279 275 279 289 295 294 294 287 269 255 252 258 256 248 246 249 257 260 258 260 262 262 260 257 255 251 248
146 145 149 149 159 170 176 185 186 188 193 196 201 198 201 201 201 203 201 206 212 217 221 228 235 245 197 195 200 206 212 212 212 219 227 238 234 231 233 236 239 243 247 251 253 251 250 253 256 255 256 259 261 263 261 262 263 268 273 274 278 283 285 286 285 284 282 270 252 249 252 254 256 252 254 260 261 263 264 265 264 263 263 261 256
149 152 156 155 161 167 172 189 192 193 201 205 211 208 208 209 210 209 209 214 217 223 230 237 237 238 214 206 214 217 219 222 225 226 225 230 232 233 238 241 246 245 246 248 248 249 248 248 251 255 260 262 262 262 263 263 259 260 266 269 275 280 282 282 281 282 282 275 257 249 258 267 266 255 256 261 264 265 263 262 263 263 263 261 257
152 160 163 161 162 167 175 192 193 194 203 209 217 217 216 217 219 218 216 219 221 230 234 239 241 240 236 224 226 226 228 229 230 232 228 230 232 234 238 243 248 249 250 252 248 245 244 242 246 255 259 261 263 265 268 266 260 259 264 267 271 275 277 277 279 280 278 273 265 258 261 267 266 262 264 265 265 263 260 259 261 261 260 258 256
156 169 173 172 168 170 177 188 186 186 198 208 216 218 219 221 224 224 223 223 225 233 237 241 244 245 244 241 239 240 244 238 230 233 234 234 235 237 239 240 245 246 247 252 253 248 247 250 257 264 261 259 263 266 269 267 266 266 266 269 270 273 275 273 274 275 273 269 267 264 260 260 261 260 260 259 260 262 260 258 258 258 256 255 255
160 176 184 184 179 178 181 187 184 184 196 206 212 217 223 224 226 231 233 233 233 236 240 245 249 251 250 251 252 252 253 241 227 235 241 241 238 239 241 241 243 244 244 250 256 254 253 258 265 269 267 264 264 264 265 266 269 270 269 270 268 272 278 278 273 268 265 262 259 258 256 256 256 254 254 253 255 260 260 256 256 255 254 254 254
163 180 190 192 187 186 188 191 190 189 194 199 204 212 226 232 234 241 243 244 244 244 246 250 253 255 254 255 261 259 250 236 229 239 243 242 239 238 243 243 245 248 249 252 253 251 251 255 261 266 268 267 265 264 265 267 271 271 267 268 267 269 276 276 271 265 260 256 253 253 252 253 255 254 255 255 253 255 257 255 254 253 253 253 253
165 177 184 192 193 193 195 194 196 193 193 202 206 205 219 237 239 238 238 243 247 247 251 253 249 251 250 246 253 255 243 234 235 238 236 236 238 241 247 251 252 254 255 255 253 251 251 255 260 264 267 268 267 267 267 267 269 269 268 269 268 268 270 270 266 266 265 261 256 254 254 255 257 257 256 256 256 258 260 259 258 256 255 254 253
166 170 173 188 195 198 201 198 200 199 195 203 209 207 214 228 231 231 229 233 239 241 246 246 239 241 242 236 239 243 239 236 237 240 241 240 244 246 248 251 254 256 256 254 253 253 255 256 256 257 261 266 269 270 269 269 266 264 266 269 270 270 271 270 266 264 267 266 262 259 258 259 260 261 261 261 262 263 265 264 263 261 258 257 255
157 165 173 185 192 197 204 204 206 206 202 202 207 213 220 226 228 231 227 222 228 235 238 238 233 233 234 232 234 237 237 236 236 242 244 243 246 246 246 249 253 256 253 249 250 253 254 252 254 259 262 265 271 273 272 274 271 263 260 262 266 269 270 269 266 265 266 266 266 264 262 261 262 263 264 264 264 263 263 262 262 260 258 258 257
156 164 171 177 188 198 203 206 211 212 210 207 208 215 224 231 231 232 228 220 222 229 233 236 237 235 233 232 232 234 238 241 240 243 246 244 245 246 247 249 253 256 254 253 254 256 253 252 256 259 260 261 265 266 264 264 264 260 257 258 260 262 263 264 264 264 266 266 266 265 263 263 263 264 264 265 265 265 264 262 261 260 257 257 257
149 154 164 181 190 199 204 204 210 215 217 215 212 218 227 233 232 231 234 231 229 230 232 235 237 237 238 238 235 234 237 243 245 246 248 247 247 249 249 248 250 252 251 252 254 254 253 253 255 256 256 257 258 258 258 257 257 257 258 260 261 261 262 263 264 264 265 265 265 264 263 263 263 264 266 267 268 268 268 265 261 260 257 256 256
140 152 162 188 192 192 198 201 210 216 219 219 217 221 228 234 234 232 238 242 239 237 237 239 240 239 241 242 241 240 236 237 244 249 252 252 252 253 253 251 251 251 250 251 251 251 252 253 254 256 257 257 259 259 260 260 260 260 261 264 264 265 265 265 266 266 266 266 266 266 266 266 265 265 267 269 270 270 270 267 263 261 257 255 255
99 144 159 178 189 190 193 202 216 222 221 221 220 224 229 234 237 237 239 243 242 242 242 243 245 245 246 245 244 246 243 238 241 249 253 255 255 256 256 254 253 253 252 253 253 253 254 254 254 256 257 258 259 261 261 260 260 260 260 262 263 263 264 264 265 265 266 266 266 268 269 270 270 268 269 270 272 272 272 271 269 267 263 258 255
36 30 148 168 174 184 196 206 214 219 223 224 226 231 232 231 236 240 238 240 245 246 245 245 247 251 252 251 249 248 247 244 243 247 252 253 252 255 256 254 253 254 251 251 254 256 256 255 254 255 257 259 259 258 259 260 261 261 260 260 260 261 262 262 263 263 263 264 265 267 269 270 270 270 271 272 273 275 274 273 273 271 268 265 260
63 36 9 14 119 197 215 215 212 219 227 230 235 238 240 237 239 243 237 238 243 243 245 248 250 253 254 253 254 252 249 247 246 248 251 250 250 253 256 254 253 255 255 254 253 256 257 254 251 251 252 255 256 253 252 256 258 258 258 259 261 262 264 264 264 263 263 263 263 265 266 267 267 268 270 271 273 275 275 274 273 272 270 268 265
41 45 34 21 8 338 296 262 231 225 226 230 238 240 243 243 243 250 248 245 247 246 248 251 253 255 257 257 255 254 251 251 253 253 252 252 252 253 256 255 255 256 258 258 255 254 255 253 252 252 252 253 255 253 250 251 253 253 253 253 254 256 259 262 263 264 264 263 264 264 265 266 267 267 268 269 271 273 275 274 273 272 271 270 268
31 31 31 26 15 3 344 322 299 257 239 236 238 239 243 245 245 250 251 251 254 254 253 255 257 257 259 262 261 258 255 254 255 254 254 256 257 256 256 257 259 260 259 258 255 253 253 254 256 257 258 257 257 256 254 254 255 256 256 254 254 254 256 259 261 263 263 263 263 263 264 266 267 268 269 270 271 272 274 275 274 273 273 273 271
34 29 29 27 23 21 15 359 348 321 279 252 247 250 254 256 256 255 255 258 258 258 258 259 262 262 262 263 264 266 264 259 256 255 255 257 259 260 260 259 260 261 259 255 255 256 256 257 257 256 258 258 257 258 257 259 260 260 259 258 259 258 259 262 265 265 265 265 265 265 264 264 266 268 269 270 271 273 274 275 275 275 274 274 273
38 35 34 33 31 31 30 25 18 3 338 293 266 262 262 264 267 267 268 270 268 266 267 266 266 268 268 264 262 265 267 266 262 259 258 259 259 261 262 261 261 262 258 253 254 256 254 255 255 254 256 255 256 260 260 261 263 264 264 265 268 266 261 260 260 260 262 264 266 267 267 266 267 268 270 270 271 272 273 273 273 274 275 275 275
39 38 38 35 33 33 35 37 33 24 13 358 333 298 274 266 270 276 276 277 278 276 277 279 279 277 277 276 271 267 265 266 266 264 262 263 263 263 265 265 263 264 260 254 254 253 253 256 256 255 254 252 255 260 260 261 263 265 267 269 271 270 266 264 262 259 258 259 260 263 265 267 268 269 270 270 270 271 271 271 272 274 275 275 273
40 39 41 39 35 33 33 35 35 36 33 27 20 360 327 290 285 293 295 296 292 285 284 286 287 286 286 287 285 280 275 271 271 270 269 268 266 264 266 268 266 267 268 263 259 257 256 258 256 254 252 251 255 258 258 261 263 265 266 266 267 266 267 268 267 265 262 260 259 261 263 265 267 268 268 268 270 270 270 271 272 274 274 272 271
41 41 42 41 38 34 34 34 32 33 35 37 38 32 22 354 321 305 306 314 313 307 301 296 297 297 294 293 294 295 291 285 280 276 273 271 269 269 268 266 265 265 267 266 265 263 259 256 254 253 253 254 256 255 257 263 264 265 265 266 267 266 265 263 262 262 261 260 261 262 263 264 264 265 265 266 267 269 270 271 272 272 271 271 271
44 43 44 43 39 34 34 34 31 30 34 36 34 31 28 20 7 352 340 338 336 328 318 317 316 311 308 305 306 308 304 296 289 283 276 270 268 271 272 270 269 267 264 263 264 265 264 261 257 255 255 256 256 253 257 264 265 265 267 268 269 268 266 264 260 258 257 257 258 259 260 261 262 263 264 264 266 267 268 269 269 269 270 272 269
43 41 42 44 42 39 36 33 30 32 36 35 30 28 25 20 16 5 358 1 4 359 350 348 348 342 334 325 321 320 316 309 303 299 293 282 274 271 272 272 271 270 267 264 263 263 264 264 263 261 257 255 255 254 257 261 261 264 267 270 271 271 270 268 263 260 258 258 258 258 259 260 260 260 262 264 265 265 265 266 266 266 269 270 268
38 35 37 41 45 44 40 35 34 36 36 34 31 31 30 29 28 21 14 15 16 15 12 11 13 10 4 354 345 335 322 312 307 305 302 294 284 279 277 276 275 273 270 268 266 264 261 261 262 263 259 255 256 258 257 253 252 259 268 279 281 277 273 264 260 260 259 259 258 257 258 258 258 258 260 261 263 263 264 264 265 267 268 267 270
36 34 32 39 45 45 41 39 40 41 38 36 33 31 33 38 41 41 40 38 35 30 26 25 25 23 21 16 8 357 345 330 316 309 306 301 294 287 281 278 277 275 273 270 269 267 264 260 258 260 260 260 260 261 256 245 246 259 269 271 281 296 284 259 257 258 257 257 257 255 255 255 255 256 257 257 258 260 262 264 265 268 269 270 275
37 33 30 35 40 42 41 40 41 42 40 39 36 33 38 45 47 49 49 44 39 34 31 28 24 22 21 23 21 15 10 2 350 338 330 322 313 305 294 285 280 276 273 271 270 270 269 267 264 260 258 257 261 263 258 249 246 247 256 260 262 296 290 284 296 277 261 253 251 252 251 251 253 253 253 252 254 257 258 262 265 268 271 274 278
37 33 31 33 34 36 39 38 39 41 41 41 41 37 40 44 43 44 44 37 31 27 25 21 18 17 16 17 22 23 22 19 11 4 357 345 331 323 313 301 294 286 279 274 272 272 272 271 270 267 260 255 257 261 261 257 247 238 235 248 280 292 277 340 344 309 279 257 251 253 250 249 251 251 249 250 253 256 259 261 264 269 273 275 276
37 36 36 35 34 35 37 37 38 39 39 40 42 42 43 43 40 37 34 28 25 23 19 14 11 13 12 15 21 23 24 21 16 12 9 4 356 349 340 325 312 300 291 282 277 275 273 272 273 272 268 262 258 257 258 260 253 242 238 241 251 261 282 335 342 309 302 288 272 268 255 248 252 252 250 252 255 258 260 264 268 270 273 274 275
38 38 39 37 37 37 38 38 37 37 36 36 39 42 44 44 41 37 31 27 24 19 16 16 14 13 14 17 19 20 22 21 17 13 9 7 5 2 359 352 340 329 318 303 290 281 276 274 273 271 271 268 260 254 256 260 258 252 248 246 248 253 262 279 287 288 311 296 285 289 277 260 263 265 261 257 257 259 265 272 275 275 273 274 274
36 37 38 37 37 37 37 38 37 35 35 34 36 39 41 41 39 35 32 28 25 16 14 18 18 17 17 19 18 17 19 20 19 15 11 10 9 5 2 359 355 350 344 334 321 307 293 282 275 269 268 267 260 253 252 253 251 253 256 254 252 253 255 255 254 256 275 292 290 292 288 282 279 277 275 270 268 269 274 278 278 276 274 273 273
35 35 36 35 35 35 35 36 37 35 33 33 34 34 36 37 35 33 30 28 26 22 19 20 19 18 18 18 18 16 16 18 18 16 13 12 11 7 3 1 358 354 350 345 339 332 322 306 290 279 273 270 267 262 256 250 246 246 249 252 254 256 256 254 250 247 245 257 276 286 290 293 288 279 275 273 273 273 275 276 274 274 275 273 273
36 37 36 35 34 33 33 34 34 33 31 32 33 32 32 32 30 28 25 23 22 20 21 21 18 17 17 15 15 14 13 14 15 14 13 12 10 6 3 2 359 355 352 349 344 341 337 328 315 301 289 281 278 275 269 263 256 251 249 248 247 248 253 256 250 244 242 246 251 259 274 285 289 282 278 273 273 274 275 275 274 273 273 271 272
35 36 35 34 33 32 31 32 31 30 29 30 31 30 30 30 28 25 22 19 17 15 16 16 14 13 13 12 10 10 10 11 12 12 10 10 10 5 2 1 358 355 354 352 348 345 340 335 331 323 310 296 287 281 277 273 266 259 256 253 249 244 242 243 246 246 242 241 252 258 258 261 267 276 280 278 276 275 274 273 272 271 271 271 271